W9BO-8 Weather Reports


Display with metric or nautical units.
time (UTC)temp
F
wind
direction
speed
MPH
gust
MPH
rain 1hr
in
rain 24hr
in
rain mn
in
humidity
%
barometer
mb
20210618084013 66 360 6.0 16.0 0.00 0.00 0.00 25 1002.7
20210618083503 66 249 6.0 14.0 0.00 0.00 0.00 25 1002.6
20210618083124 66 246 5.0 13.0 0.00 0.00 0.00 25 1002.6
20210618082611 67 276 5.0 13.0 0.00 0.00 0.00 25 1002.7
20210618082033 67 266 6.0 13.0 0.00 0.00 0.00 24 1002.6
20210618081540 67 292 6.0 13.0 0.00 0.00 0.00 24 1002.5
20210618081015 67 294 3.0 14.0 0.00 0.00 0.00 24 1002.6
20210618080507 67 360 7.0 14.0 0.00 0.00 0.00 24 1002.6
20210618080128 67 360 5.0 14.0 0.00 0.00 0.00 24 1002.6
20210618075548 67 178 6.0 14.0 0.00 0.00 0.00 24 1002.6
20210618075044 67 360 4.0 13.0 0.00 0.00 0.00 24 1002.6
20210618074536 67 360 5.0 13.0 0.00 0.00 0.00 24 1002.6
20210618074021 67 360 5.0 11.0 0.00 0.00 0.00 24 1002.6
20210618073516 67 360 5.0 10.0 0.00 0.00 0.00 24 1002.6
20210618073002 67 360 5.0 11.0 0.00 0.00 0.00 24 1002.5
20210618072553 67 252 3.0 11.0 0.00 0.00 0.00 24 1002.5
20210618072051 67 287 5.0 14.0 0.00 0.00 0.00 24 1002.5
20210618071551 67 251 5.0 14.0 0.00 0.00 0.00 24 1002.5
20210618071027 67 206 5.0 14.0 0.00 0.00 0.00 24 1002.6
20210618070512 67 360 4.0 14.0 0.00 0.00 0.00 25 1002.6
20210618070246 67 286 5.0 11.0 0.00 0.00 0.00 25 1002.6
20210618065549 66 302 3.0 10.0 0.00 0.00 0.00 25 1002.6
20210618065036 66 360 4.0 11.0 0.00 0.00 0.00 26 1002.6
20210618064613 66 360 3.0 11.0 0.00 0.00 0.00 26 1002.6
20210618064018 66 360 3.0 9.0 0.00 0.00 0.00 26 1002.6
20210618063508 66 360 4.0 9.0 0.00 0.00 0.00 26 1002.6
20210618063142 66 227 4.0 9.0 0.00 0.00 0.00 26 1002.7
20210618062552 65 360 4.0 9.0 0.00 0.00 0.00 27 1002.6
20210618062049 65 250 3.0 9.0 0.00 0.00 0.00 27 1002.6
20210618061605 65 360 3.0 10.0 0.00 0.00 0.00 27 1002.7
20210618061016 66 228 3.0 10.0 0.00 0.00 0.00 27 1002.6
20210618060503 66 360 2.0 8.0 0.00 0.00 0.00 26 1002.7
20210618060137 67 360 1.0 7.0 0.00 0.00 0.00 26 1002.7
20210618055539 67 360 2.0 10.0 0.00 0.00 0.00 25 1002.8
20210618055028 67 304 2.0 8.0 0.00 0.00 0.00 25 1002.8
20210618054553 67 292 2.0 6.0 0.00 0.00 0.00 26 1002.8
20210618054020 67 319 3.0 8.0 0.00 0.00 0.00 26 1002.7
20210618053608 67 360 2.0 8.0 0.00 0.00 0.00 26 1002.6
20210618053147 67 218 1.0 6.0 0.00 0.00 0.00 26 1002.6
20210618052541 68 225 2.0 6.0 0.00 0.00 0.00 26 1002.6
20210618052033 68 279 1.0 5.0 0.00 0.00 0.00 26 1002.8
20210618051623 68 360 0.0 3.0 0.00 0.00 0.00 25 1002.9
20210618051014 68 335 0.0 5.0 0.00 0.00 0.00 26 1002.8
20210618050505 68 24 2.0 9.0 0.00 0.00 0.00 25 1002.7
20210618050129 68 218 0.0 11.0 0.00 0.00 0.00 24 1002.7
20210618045548 67 360 3.0 11.0 0.00 0.00 0.00 26 1002.7
20210618045056 66 275 3.0 9.0 0.00 0.00 0.00 28 1002.8
20210618044602 67 360 1.0 8.0 0.00 0.00 0.00 28 1002.8
20210618043502 67 251 3.0 8.0 0.00 0.00 0.00 28 1002.7
20210618043116 67 208 1.0 7.0 0.00 0.00 0.00 28 1002.7
20210618042607 67 360 3.0 12.0 0.00 0.00 0.00 28 1002.7
20210618042037 67 360 3.0 12.0 0.00 0.00 0.00 28 1002.7
20210618041537 67 167 3.0 9.0 0.00 0.00 0.00 28 1002.7
20210618041014 67 194 3.0 11.0 0.00 0.00 0.00 28 1002.7
20210618040505 67 216 4.0 11.0 0.00 0.00 0.00 28 1002.7
20210618040159 67 229 3.0 11.0 0.00 0.00 0.00 28 1002.8
20210618035614 67 360 2.0 8.0 0.00 0.00 0.00 29 1002.7
20210618035040 67 186 1.0 7.0 0.00 0.00 0.00 30 1002.7
20210618034610 67 186 2.0 7.0 0.00 0.00 0.00 29 1002.7
20210618034038 67 186 3.0 8.0 0.00 0.00 0.00 29 1002.7
20210618033538 67 208 2.0 10.0 0.00 0.00 0.00 29 1002.6
20210618033004 67 187 3.0 8.0 0.00 0.00 0.00 29 1002.6
20210618032555 67 205 3.0 8.0 0.00 0.00 0.00 29 1002.6
20210618032047 66 202 3.0 8.0 0.00 0.00 0.00 29 1002.7
20210618031713 67 170 1.0 7.0 0.00 0.00 0.00 29 1002.6
20210618031043 67 176 1.0 6.0 0.00 0.00 0.00 28 1002.6
20210618030519 67 188 2.0 7.0 0.00 0.00 0.00 28 1002.6
20210618030019 67 202 3.0 7.0 0.00 0.00 0.00 28 1002.4
20210618025503 67 198 2.0 7.0 0.00 0.00 0.00 29 1002.4
20210618025056 67 176 2.0 9.0 0.00 0.00 0.00 29 1002.4
20210618024618 67 181 4.0 9.0 0.00 0.00 0.00 29 1002.3
20210618024037 67 194 2.0 4.0 0.00 0.00 0.00 30 1002.5
20210618023526 68 169 1.0 4.0 0.00 0.00 0.00 28 1002.4
20210618023044 68 147 1.0 4.0 0.00 0.00 0.00 29 1002.6
20210618022508 68 173 0.0 3.0 0.00 0.00 0.00 28 1002.8
20210618022059 68 180 1.0 5.0 0.00 0.00 0.00 28 1002.8
20210618021636 68 201 1.0 5.0 0.00 0.00 0.00 28 1002.6
20210618021036 69 188 1.0 4.0 0.00 0.00 0.00 28 1002.5
20210618020527 69 189 0.0 4.0 0.00 0.00 0.00 28 1002.5
20210618020047 69 215 1.0 6.0 0.00 0.00 0.00 28 1002.5
20210618015502 69 173 2.0 6.0 0.00 0.00 0.00 27 1002.6
20210618015054 69 202 0.0 5.0 0.00 0.00 0.00 27 1002.6
20210618014603 69 223 2.0 5.0 0.00 0.00 0.00 27 1002.6
20210618014035 69 190 0.0 4.0 0.00 0.00 0.00 27 1002.6
20210618013525 69 192 0.0 1.0 0.00 0.00 0.00 27 1002.6
20210618013033 69 193 0.0 1.0 0.00 0.00 0.00 26 1002.7
20210618012514 69 327 0.0 1.0 0.00 0.00 0.00 26 1002.8
20210618011659 69 327 0.0 5.0 0.00 0.00 0.00 26 1002.9
20210618011041 70 317 0.0 5.0 0.00 0.00 0.00 27 1002.9
20210618010542 70 94 0.0 7.0 0.00 0.00 0.00 26 1002.7
20210618010037 70 211 0.0 10.0 0.00 0.00 0.00 26 1002.7
20210618005513 70 223 1.0 10.0 0.00 0.00 0.00 26 1002.8
20210618005003 70 228 2.0 15.0 0.00 0.00 0.00 27 1002.9
20210618004714 70 296 3.0 15.0 0.00 0.00 0.00 27 1003.0
20210618004051 70 360 4.0 11.0 0.00 0.00 0.00 27 1002.7
20210618003536 70 360 3.0 15.0 0.00 0.00 0.00 27 1002.3
20210618003036 71 184 7.0 15.0 0.00 0.00 0.00 26 1002.0
20210618002517 71 176 5.0 16.0 0.00 0.00 0.00 25 1001.9
20210618002009 72 171 10.0 20.0 0.00 0.00 0.00 25 1001.8
20210618001056 72 188 9.0 18.0 0.00 0.00 0.00 25 1001.8
20210618000539 72 194 10.0 19.0 0.00 0.00 0.00 24 1001.9
20210618000035 71 174 9.0 19.0 0.00 0.00 0.00 24 1002.1
20210617235519 71 147 10.0 19.0 0.00 0.00 0.00 25 1002.1
20210617235024 71 134 12.0 18.0 0.00 0.00 0.00 24 1002.3
20210617234510 71 360 9.0 17.0 0.00 0.00 0.00 25 1002.2
20210617234100 71 205 10.0 17.0 0.00 0.00 0.00 25 1002.3
20210617233600 71 182 10.0 18.0 0.00 0.00 0.00 25 1002.2
20210617233112 72 186 8.0 18.0 0.00 0.00 0.00 25 1002.2
20210617232525 72 192 6.0 12.0 0.00 0.00 0.00 25 1002.3
20210617232016 73 167 7.0 17.0 0.00 0.00 0.00 24 1002.2
20210617231509 73 161 11.0 20.0 0.00 0.00 0.00 24 1002.1
20210617231059 73 179 10.0 22.0 0.00 0.00 0.00 24 1002.2
20210617230549 72 175 8.0 21.0 0.00 0.00 0.00 24 1002.2
20210617230101 72 160 11.0 22.0 0.00 0.00 0.00 24 1002.3
20210617225536 73 166 13.0 22.0 0.00 0.00 0.00 23 1002.4
20210617225019 73 169 11.0 19.0 0.00 0.00 0.00 22 1002.4
20210617224522 74 167 5.0 15.0 0.00 0.00 0.00 22 1002.3
20210617224113 74 163 3.0 14.0 0.00 0.00 0.00 22 1002.3
20210617223547 75 158 2.0 14.0 0.00 0.00 0.00 21 1002.4
20210617223051 76 150 7.0 14.0 0.00 0.00 0.00 20 1002.4
20210617222532 77 178 3.0 14.0 0.00 0.00 0.00 21 1002.5
20210617222022 77 166 5.0 14.0 0.00 0.00 0.00 21 1002.5
20210617221545 77 153 7.0 13.0 0.00 0.00 0.00 20 1002.5
20210617220603 76 84 1.0 10.0 0.00 0.00 0.00 21 1002.7
20210617220215 77 69 1.0 10.0 0.00 0.00 0.00 20 1002.7
20210617215536 77 112 2.0 8.0 0.00 0.00 0.00 20 1002.8
20210617215023 77 80 2.0 9.0 0.00 0.00 0.00 21 1002.7
20210617214508 76 165 3.0 11.0 0.00 0.00 0.00 21 1002.9
20210617214105 76 171 6.0 11.0 0.00 0.00 0.00 21 1003.0
20210617213549 75 148 3.0 7.0 0.00 0.00 0.00 22 1003.3
20210617213132 75 162 1.0 3.0 0.00 0.00 0.00 21 1003.2
20210617212531 76 157 0.0 0.0 0.00 0.00 0.00 20 1003.1
20210617212031 76 157 0.0 0.0 0.00 0.00 0.00 21 1003.1
20210617211524 75 157 0.0 1.0 0.00 0.00 0.00 20 1003.1
20210617211002 75 157 0.0 2.0 0.00 0.00 0.00 21 1003.2
20210617210555 75 162 0.0 2.0 0.00 0.00 0.00 22 1003.2
20210617210157 76 93 0.0 4.0 0.00 0.00 0.00 21 1003.3
20210617205550 76 93 0.0 6.0 0.00 0.00 0.00 20 1003.3
20210617205032 76 71 3.0 6.0 0.00 0.00 0.00 19 1003.2
20210617204514 77 52 2.0 6.0 0.00 0.00 0.00 20 1003.3
20210617204006 77 47 1.0 9.0 0.00 0.00 0.00 20 1003.2
20210617203553 77 62 1.0 11.0 0.00 0.00 0.00 19 1003.4
20210617203125 77 63 4.0 11.0 0.00 0.00 0.00 18 1003.4
20210617202530 76 111 2.0 7.0 0.00 0.00 0.00 21 1003.5
20210617202039 75 71 3.0 6.0 0.00 0.00 0.00 19 1003.6
20210617201543 76 78 1.0 9.0 0.00 0.00 0.00 19 1003.6
20210617201002 76 97 3.0 9.0 0.00 0.00 0.00 19 1003.7
20210617200554 76 80 4.0 10.0 0.00 0.00 0.00 20 1003.7
20210617200113 77 96 2.0 10.0 0.00 0.00 0.00 19 1003.7
20210617195547 77 130 3.0 9.0 0.00 0.00 0.00 19 1003.8
20210617195026 77 119 5.0 9.0 0.00 0.00 0.00 19 1003.8
20210617194517 77 123 2.0 9.0 0.00 0.00 0.00 20 1003.7
20210617194013 77 78 1.0 9.0 0.00 0.00 0.00 20 1003.8
20210617193606 77 76 0.0 11.0 0.00 0.00 0.00 21 1003.9
20210617193148 77 57 2.0 11.0 0.00 0.00 0.00 19 1003.9
20210617192553 77 86 4.0 8.0 0.00 0.00 0.00 18 1004.1
20210617192032 77 61 2.0 8.0 0.00 0.00 0.00 19 1004.2
20210617191519 76 108 2.0 9.0 0.00 0.00 0.00 19 1004.4
20210617191020 76 78 1.0 11.0 0.00 0.00 0.00 19 1004.5
20210617190603 76 74 2.0 11.0 0.00 0.00 0.00 19 1004.6
20210617190106 76 119 3.0 9.0 0.00 0.00 0.00 19 1004.6
20210617185548 77 93 0.0 10.0 0.00 0.00 0.00 21 1004.5
20210617185038 77 93 1.0 11.0 0.00 0.00 0.00 20 1004.6
20210617184558 77 329 2.0 12.0 0.00 0.00 0.00 18 1004.5
20210617184014 77 57 5.0 12.0 0.00 0.00 0.00 17 1004.3
20210617183503 78 80 3.0 10.0 0.00 0.00 0.00 17 1004.5
20210617183112 78 307 0.0 5.0 0.00 0.00 0.00 16 1004.6
20210617182601 79 173 0.0 6.0 0.00 0.00 0.00 15 1004.7
20210617182036 79 321 0.0 10.0 0.00 0.00 0.00 16 1004.6
20210617181530 80 290 3.0 11.0 0.00 0.00 0.00 14 1004.6
20210617181033 80 344 4.0 11.0 0.00 0.00 0.00 14 1004.6
20210617180508 80 19 3.0 16.0 0.00 0.00 0.00 14 1004.6
20210617180152 80 292 2.0 16.0 0.00 0.00 0.00 14 1004.7
20210617175551 81 290 6.0 12.0 0.00 0.00 0.00 14 1004.8
20210617175041 82 321 4.0 13.0 0.00 0.00 0.00 13 1004.8
20210617174553 81 340 4.0 11.0 0.00 0.00 0.00 14 1004.8
20210617174016 81 291 2.0 9.0 0.00 0.00 0.00 13 1004.8
20210617173504 80 173 1.0 10.0 0.00 0.00 0.00 15 1004.8
20210617173234 80 319 4.0 10.0 0.00 0.00 0.00 15 1005.0
20210617172550 80 360 2.0 14.0 0.00 0.00 0.00 12 1005.1
20210617172033 80 295 4.0 14.0 0.00 0.00 0.00 14 1005.0
20210617171525 79 303 3.0 12.0 0.00 0.00 0.00 14 1005.0
20210617170551 79 360 1.0 14.0 0.00 0.00 0.00 13 1005.1
20210617170322 79 360 1.0 9.0 0.00 0.00 0.00 14 1005.0
20210617165522 79 322 2.0 9.0 0.00 0.00 0.00 15 1005.1
20210617165007 78 329 3.0 11.0 0.00 0.00 0.00 14 1005.1
20210617164746 78 360 3.0 11.0 0.00 0.00 0.00 14 1005.1
20210617164042 78 360 2.0 11.0 0.00 0.00 0.00 13 1005.2
20210617163529 77 293 2.0 11.0 0.00 0.00 0.00 13 1005.2
20210617163028 78 360 2.0 11.0 0.00 0.00 0.00 14 1005.2
20210617162505 77 360 1.0 11.0 0.00 0.00 0.00 15 1005.2
20210617162055 77 302 1.0 9.0 0.00 0.00 0.00 15 1005.2
20210617161632 76 360 2.0 11.0 0.00 0.00 0.00 16 1005.2
20210617161039 75 296 2.0 11.0 0.00 0.00 0.00 15 1005.2
20210617160525 75 360 2.0 11.0 0.00 0.00 0.00 16 1005.3
20210617160024 76 329 4.0 10.0 0.00 0.00 0.00 15 1005.4
20210617155507 77 360 3.0 11.0 0.00 0.00 0.00 16 1005.2
20210617155056 76 249 5.0 11.0 0.00 0.00 0.00 16 1005.3
20210617154546 76 300 3.0 11.0 0.00 0.00 0.00 16 1005.3
20210617154036 76 290 3.0 9.0 0.00 0.00 0.00 17 1005.3
20210617153521 76 288 2.0 10.0 0.00 0.00 0.00 17 1005.3
20210617153012 76 360 2.0 10.0 0.00 0.00 0.00 18 1005.4
20210617152617 75 274 2.0 10.0 0.00 0.00 0.00 20 1005.4
20210617152052 75 288 3.0 10.0 0.00 0.00 0.00 18 1005.4
20210617151612 75 360 3.0 8.0 0.00 0.00 0.00 19 1005.4
20210617151033 75 360 4.0 11.0 0.00 0.00 0.00 19 1005.3
20210617150507 74 360 4.0 11.0 0.00 0.00 0.00 19 1005.4
20210617150227 74 266 2.0 11.0 0.00 0.00 0.00 19 1005.5
20210617145545 74 228 5.0 11.0 0.00 0.00 0.00 18 1005.4
20210617145030 74 277 2.0 9.0 0.00 0.00 0.00 17 1005.4
20210617144539 74 360 3.0 8.0 0.00 0.00 0.00 18 1005.4
20210617144003 74 209 2.0 6.0 0.00 0.00 0.00 16 1005.3
20210617143552 73 360 3.0 7.0 0.00 0.00 0.00 19 1005.2
20210617143059 73 286 2.0 8.0 0.00 0.00 0.00 19 1005.3
20210617142524 72 284 2.0 8.0 0.00 0.00 0.00 19 1005.2
20210617142014 72 360 2.0 8.0 0.00 0.00 0.00 21 1005.2
20210617141741 71 360 3.0 8.0 0.00 0.00 0.00 20 1005.2
20210617141049 70 269 2.0 10.0 0.00 0.00 0.00 20 1005.1
20210617140540 70 323 4.0 10.0 0.00 0.00 0.00 21 1005.2
20210617140045 69 291 2.0 10.0 0.00 0.00 0.00 22 1005.1
20210617135516 69 360 4.0 11.0 0.00 0.00 0.00 21 1005.1
20210617135105 69 292 6.0 11.0 0.00 0.00 0.00 21 1005.2
20210617134555 69 360 4.0 11.0 0.00 0.00 0.00 22 1005.2
20210617134036 68 360 5.0 10.0 0.00 0.00 0.00 22 1005.1
20210617133518 68 360 3.0 11.0 0.00 0.00 0.00 22 1005.1
20210617133041 68 360 5.0 11.0 0.00 0.00 0.00 22 1005.0
20210617132556 68 277 4.0 11.0 0.00 0.00 0.00 23 1005.0
20210617132046 68 360 5.0 12.0 0.00 0.00 0.00 22 1005.0
20210617131601 68 360 4.0 13.0 0.00 0.00 0.00 22 1005.0
20210617131023 67 360 4.0 12.0 0.00 0.00 0.00 22 1004.9
20210617130511 67 360 5.0 12.0 0.00 0.00 0.00 23 1005.0
20210617125605 67 360 6.0 17.0 0.00 0.00 0.00 23 1005.0
20210617125110 67 310 7.0 15.0 0.00 0.00 0.00 23 1005.0
20210617124616 67 360 6.0 15.0 0.00 0.00 0.00 22 1005.0
20210617124016 67 360 6.0 16.0 0.00 0.00 0.00 23 1005.0
20210617123507 67 360 7.0 16.0 0.00 0.00 0.00 22 1005.0
20210617123249 67 360 7.0 16.0 0.00 0.00 0.00 22 1004.9
20210617122553 67 360 7.0 16.0 0.00 0.00 0.00 22 1004.9
20210617122034 67 240 7.0 17.0 0.00 0.00 0.00 22 1004.9
20210617121534 67 170 9.0 19.0 0.00 0.00 0.00 22 1004.8
20210617121025 67 284 7.0 18.0 0.00 0.00 0.00 22 1004.8
20210617120210 67 272 7.0 15.0 0.00 0.00 0.00 21 1004.7
20210617115540 67 360 7.0 15.0 0.00 0.00 0.00 21 1004.6
20210617115028 67 360 7.0 20.0 0.00 0.00 0.00 21 1004.6
20210617114526 67 182 8.0 20.0 0.00 0.00 0.00 20 1004.5
20210617114014 67 360 8.0 19.0 0.00 0.00 0.00 21 1004.4
20210617113555 67 360 7.0 14.0 0.00 0.00 0.00 21 1004.4
20210617113105 67 360 6.0 17.0 0.00 0.00 0.00 20 1004.4
20210617112545 67 279 7.0 17.0 0.00 0.00 0.00 20 1004.4
20210617112025 67 360 6.0 15.0 0.00 0.00 0.00 20 1004.3
20210617111532 67 360 5.0 17.0 0.00 0.00 0.00 20 1004.3
20210617111012 67 218 4.0 17.0 0.00 0.00 0.00 20 1004.3
20210617110624 67 360 5.0 14.0 0.00 0.00 0.00 20 1004.3
20210617110058 67 290 7.0 16.0 0.00 0.00 0.00 20 1004.2
20210617105558 67 360 5.0 14.0 0.00 0.00 0.00 20 1004.2
20210617105036 67 360 6.0 15.0 0.00 0.00 0.00 20 1004.1
20210617104547 66 232 7.0 15.0 0.00 0.00 0.00 20 1004.1
20210617104006 66 360 6.0 16.0 0.00 0.00 0.00 21 1004.1
20210617103607 66 360 4.0 16.0 0.00 0.00 0.00 21 1004.0
20210617103106 66 360 6.0 16.0 0.00 0.00 0.00 21 1004.0
20210617102556 65 360 5.0 14.0 0.00 0.00 0.00 22 1004.0
20210617102033 65 360 5.0 14.0 0.00 0.00 0.00 22 1003.9
20210617101533 65 250 5.0 14.0 0.00 0.00 0.00 23 1004.0
20210617101010 65 220 4.0 14.0 0.00 0.00 0.00 24 1004.0
20210617100139 64 223 6.0 12.0 0.00 0.00 0.00 25 1004.1
20210617095541 64 290 4.0 14.0 0.00 0.00 0.00 26 1004.0
20210617095049 65 360 5.0 14.0 0.00 0.00 0.00 26 1004.0
20210617094551 65 211 6.0 12.0 0.00 0.00 0.00 26 1004.1
20210617094004 65 229 3.0 12.0 0.00 0.00 0.00 26 1004.1
20210617093554 65 360 5.0 12.0 0.00 0.00 0.00 26 1004.1
20210617093119 65 360 5.0 12.0 0.00 0.00 0.00 26 1004.2
20210617092535 66 190 5.0 14.0 0.00 0.00 0.00 26 1004.1
20210617092018 66 210 6.0 15.0 0.00 0.00 0.00 25 1004.1
20210617091517 66 209 6.0 15.0 0.00 0.00 0.00 25 1004.1
20210617091106 66 211 5.0 13.0 0.00 0.00 0.00 25 1004.1
20210617090551 66 201 5.0 11.0 0.00 0.00 0.00 25 1004.2
20210617090056 66 217 4.0 18.0 0.00 0.00 0.00 25 1004.2
20210617085534 67 182 5.0 18.0 0.00 0.00 0.00 25 1004.2
20210617085016 67 211 4.0 13.0 0.00 0.00 0.00 24 1004.2
20210617084507 67 210 5.0 11.0 0.00 0.00 0.00 24 1004.3